Agassiz, British Columbia

8:45 PM PDT on May 25, 2017 (GMT -0700)
Agassiz

Weather History for CWZA - October, 2011

Change the Weather History Date:

Sunday, October 9, 2011

  Actual Average Record
Temperature  
Mean Temperature 53 °F -  
Max Temperature 59 °F 56 °F - ()
Min Temperature 47 °F 42 °F - ()
Degree Days  
Heating Degree Days 12    
Growing Degree Days 3 (Base 50)    
Moisture  
Dew Point 51 °F    
Average Humidity 91    
Maximum Humidity 100    
Minimum Humidity 74    
Precipitation  
Precipitation 0.12 in 0.26 in - ()
Sea Level Pressure  
Sea Level Pressure 29.99 in    
Wind  
Wind Speed 1 mph ()    
Max Wind Speed 4 mph    
Max Gust Speed -    
T = Trace of Precipitation, MM = Missing Value Source: Averaged Metar Reports

Daily Weather History Graph

Daily Weather History Graph

Search for Another Location

Airport or City:

Trip Planner

Search our weather history database for the weather conditions in past years. The results will help you decide how hot, cold, wet, or windy it might be!

Date:

Astronomy

Oct. 09, 2011 Rise Set
Actual Time 7:18 AM PDT 6:29 PM PDT
Civil Twilight 6:46 AM PDT 7:01 PM PDT
Nautical Twilight 6:09 AM PDT 7:37 PM PDT
Astronomical Twilight 5:32 AM PDT 8:14 PM PDT
Moon 5:13 PM PDT (10/9) 5:00 AM PDT (10/9)
Length of Visible Light 12h 14m
Length of Day
11h 10m
Waxing Gibbous, 95% of the Moon is Illuminated
Oct 9
Waxing Gibbous
Oct 11
Full
Oct 19
Last Quarter
Oct 26
New
Nov 2
First Quarter

Hourly Weather History & Observations

Time (PDT) Temp. Dew Point Humidity Pressure Visibility Wind Dir Wind Speed Gust Speed Precip Events Conditions
12:00 AM 52.2 °F 51.4 °F 97% 30.05 in - South 1.2 mph - N/A   Unknown
1:00 AM 52.2 °F 51.3 °F 97% 30.04 in - NW 2.3 mph - N/A   Unknown
2:00 AM 52.2 °F 51.3 °F 97% 30.05 in - SSE 1.2 mph - N/A   Unknown
3:00 AM 52.2 °F 51.4 °F 97% 30.05 in - Calm Calm - 0.02 in   Unknown
4:00 AM 52.3 °F 51.8 °F 98% 30.04 in - ESE 1.2 mph - 0.02 in   Unknown
5:00 AM 53 °F 52 °F 96% 30.05 in - Calm Calm - -  
5:00 AM 52.5 °F 52.2 °F 99% 30.05 in - Calm Calm - 0.01 in   Unknown
6:00 AM 52.9 °F 52.5 °F 99% 30.05 in - North 1.2 mph - 0.06 in   Unknown
7:00 AM 53.1 °F 52.7 °F 99% 30.05 in - East 2.3 mph - 0.07 in   Unknown
8:00 AM 53.2 °F 52.9 °F 99% 30.05 in - ENE 2.3 mph - N/A   Unknown
9:00 AM 54.5 °F 53.6 °F 97% 30.06 in - East 3.5 mph - N/A   Unknown
10:00 AM 54.9 °F 52.2 °F 91% 30.05 in - North 2.3 mph - N/A   Unknown
11:00 AM 55 °F 52 °F 86% 30.05 in - SSW 2.3 mph - -  
12:00 PM 56.7 °F 51.4 °F 83% 30.04 in - SSW 3.5 mph - N/A   Unknown
1:00 PM 57.9 °F 50.0 °F 75% 30.02 in - SSW 3.5 mph - N/A   Unknown
2:00 PM 57.4 °F 50.2 °F 77% 30.00 in - South 2.3 mph - N/A   Unknown
3:00 PM 58.8 °F 51.4 °F 76% 29.99 in - SW 2.3 mph - N/A   Unknown
4:00 PM 58.3 °F 50.0 °F 74% 29.98 in - SW 3.5 mph - N/A   Unknown
5:00 PM 58.6 °F 50.9 °F 75% 29.95 in - East 3.5 mph - N/A   Unknown
6:00 PM 55.6 °F 49.8 °F 81% 29.90 in - SE 2.3 mph - N/A   Unknown
8:00 PM 48.4 °F 47.3 °F 96% 29.90 in - Calm Calm - N/A   Unknown
9:00 PM 48.6 °F 48.0 °F 98% 29.88 in - Calm Calm - N/A   Unknown
10:00 PM 47.1 °F 46.6 °F 98% 29.86 in - North 1.2 mph - N/A   Unknown
11:00 PM 47 °F 47 °F 100% 29.85 in - SE 1.2 mph - -  
11:00 PM 47.5 °F 47.1 °F 99% 29.85 in - SE 1.2 mph - N/A   Unknown